N850CB KSLC-KCOS

Flight info

Callsign N850CB
Flight time 1h 1m
Altitude 41000
Route ZIONZ1 KIMMR DCT HBU DBRY5
Aircraft C700/L-SDE2E3FGHUTRWXY/LB1

Departure

Time 2026-05-05 03:48
Airport Salt Lake City International Airport (KSLC)

Arrival

Time 2026-05-05 04:49
Airport City of Colorado Springs Municipal Airport (KCOS)
Time Latitude Longitude Altitude Speed Heading
2026-05-05 03:35 40.77785 -111.95873 4232 ft 0 kts 359°
2026-05-05 03:41 40.77830 -111.95884 4232 ft 4 kts 319°
2026-05-05 03:41 40.77831 -111.95957 4230 ft 13 kts 264°
2026-05-05 03:42 40.77850 -111.96012 4229 ft 9 kts
2026-05-05 03:42 40.77975 -111.96003 4229 ft 23 kts
2026-05-05 03:42 40.78120 -111.96003 4228 ft 17 kts
2026-05-05 03:42 40.78257 -111.96002 4218 ft 18 kts 360°
2026-05-05 03:43 40.78395 -111.96002 4222 ft 21 kts
2026-05-05 03:43 40.78522 -111.96004 4224 ft 19 kts
2026-05-05 03:43 40.78671 -111.96003 4226 ft 23 kts 359°
2026-05-05 03:43 40.78833 -111.96004 4230 ft 24 kts
2026-05-05 03:44 40.79003 -111.96002 4228 ft 24 kts
2026-05-05 03:44 40.79176 -111.96004 4228 ft 25 kts 359°
2026-05-05 03:44 40.79368 -111.96003 4221 ft 31 kts 359°
2026-05-05 03:44 40.79569 -111.96003 4223 ft 28 kts 360°
2026-05-05 03:45 40.79742 -111.96003 4222 ft 14 kts 358°
2026-05-05 03:45 40.79801 -111.96008 4223 ft 9 kts 354°
2026-05-05 03:45 40.79866 -111.96020 4226 ft 9 kts 336°
2026-05-05 03:45 40.79884 -111.96039 4227 ft 0 kts 299°
2026-05-05 03:46 40.79892 -111.96088 4227 ft 3 kts 271°
2026-05-05 03:47 40.79861 -111.96168 4225 ft 10 kts 227°
2026-05-05 03:47 40.79787 -111.96208 4226 ft 17 kts 180°
2026-05-05 03:47 40.79419 -111.96207 4225 ft 97 kts 179°
2026-05-05 03:47 40.78470 -111.96221 4361 ft 165 kts 178°
2026-05-05 03:48 40.77316 -111.96303 5647 ft 164 kts 181°
2026-05-05 03:48 40.76025 -111.96432 6633 ft 201 kts 177°
2026-05-05 03:48 40.74497 -111.96467 7278 ft 248 kts 178°
2026-05-05 03:48 40.72712 -111.96538 8681 ft 253 kts 178°
2026-05-05 03:49 40.70950 -111.96597 10416 ft 249 kts 177°
2026-05-05 03:49 40.69212 -111.96636 12012 ft 248 kts 178°
2026-05-05 03:49 40.67498 -111.96671 13602 ft 248 kts 178°
2026-05-05 03:49 40.65698 -111.96704 14559 ft 266 kts 178°
2026-05-05 03:50 40.63829 -111.96733 15644 ft 278 kts 178°
2026-05-05 03:50 40.61862 -111.96760 16831 ft 287 kts 179°
2026-05-05 03:50 40.59834 -111.96663 18027 ft 298 kts 177°
2026-05-05 03:50 40.57790 -111.96058 19073 ft 310 kts 155°
2026-05-05 03:51 40.56107 -111.94247 20155 ft 321 kts 129°
2026-05-05 03:51 40.54724 -111.91934 21281 ft 324 kts 139°
2026-05-05 03:51 40.52743 -111.90552 22429 ft 326 kts 167°
2026-05-05 03:51 40.50437 -111.90319 23019 ft 349 kts 181°
2026-05-05 03:52 40.47879 -111.90476 23029 ft 386 kts 184°
2026-05-05 03:52 40.45071 -111.90569 23027 ft 421 kts 180°
2026-05-05 03:52 40.42075 -111.90273 23007 ft 437 kts 173°
2026-05-05 03:52 40.39087 -111.89521 23486 ft 434 kts 168°
2026-05-05 03:53 40.36207 -111.88639 25122 ft 418 kts 168°
2026-05-05 03:53 40.33393 -111.87963 26771 ft 404 kts 173°
2026-05-05 03:53 40.30646 -111.87500 28306 ft 391 kts 174°
2026-05-05 03:53 40.28002 -111.87001 29905 ft 376 kts 173°
2026-05-05 03:54 40.25482 -111.86414 31320 ft 359 kts 174°
2026-05-05 03:54 40.23085 -111.85867 32803 ft 338 kts 176°
2026-05-05 03:54 40.20847 -111.85406 34271 ft 313 kts 178°
2026-05-05 03:54 40.18786 -111.84979 35623 ft 286 kts 179°
2026-05-05 03:55 40.16935 -111.84576 37022 ft 253 kts 180°
2026-05-05 03:55 40.15340 -111.84023 38446 ft 220 kts 173°
2026-05-05 03:55 40.14012 -111.83290 39183 ft 206 kts 168°
2026-05-05 03:55 40.12674 -111.82282 38784 ft 249 kts 156°
2026-05-05 03:56 40.11235 -111.80878 38923 ft 256 kts 156°
2026-05-05 03:56 40.09871 -111.79396 39300 ft 263 kts 145°
2026-05-05 03:56 40.08704 -111.77396 39283 ft 290 kts 131°
2026-05-05 03:56 40.07668 -111.75091 39342 ft 298 kts 131°
2026-05-05 03:57 40.06536 -111.72895 39518 ft 298 kts 135°
2026-05-05 03:57 40.05014 -111.70964 39516 ft 313 kts 140°
2026-05-05 03:57 40.03833 -111.68492 39811 ft 330 kts 122°
2026-05-05 03:57 40.03019 -111.65656 40173 ft 335 kts 117°
2026-05-05 03:58 40.02140 -111.62810 40279 ft 341 kts 126°
2026-05-05 03:58 40.00932 -111.60140 40451 ft 344 kts 133°
2026-05-05 03:58 39.99563 -111.57564 40749 ft 348 kts 133°
2026-05-05 03:58 39.98245 -111.54885 40964 ft 355 kts 130°
2026-05-05 03:59 39.97008 -111.52020 40957 ft 372 kts 127°
2026-05-05 03:59 39.95698 -111.49041 40869 ft 387 kts 128°
2026-05-05 03:59 39.94253 -111.46021 40816 ft 400 kts 130°
2026-05-05 03:59 39.92755 -111.42879 40833 ft 415 kts 128°
2026-05-05 04:00 39.91245 -111.39594 40850 ft 431 kts 128°
2026-05-05 04:00 39.89692 -111.36194 40873 ft 443 kts 128°
2026-05-05 04:00 39.88064 -111.32708 40874 ft 456 kts 128°
2026-05-05 04:00 39.86383 -111.29129 40861 ft 469 kts 128°
2026-05-05 04:01 39.84691 -111.25503 40875 ft 482 kts 127°
2026-05-05 04:01 39.82934 -111.21723 40878 ft 494 kts 127°
2026-05-05 04:01 39.81129 -111.17854 40877 ft 505 kts 127°
2026-05-05 04:01 39.79281 -111.13914 40873 ft 513 kts 128°
2026-05-05 04:02 39.75561 -111.05977 40892 ft 515 kts 128°
2026-05-05 04:02 39.71832 -110.98045 40910 ft 513 kts 128°
2026-05-05 04:03 39.68114 -110.90160 40918 ft 511 kts 128°
2026-05-05 04:03 39.64415 -110.82323 40913 ft 506 kts 129°
2026-05-05 04:04 39.60745 -110.74583 40927 ft 502 kts 129°
2026-05-05 04:04 39.57092 -110.66888 40928 ft 499 kts 129°
2026-05-05 04:05 39.53466 -110.59277 40805 ft 503 kts 129°
2026-05-05 04:05 39.49765 -110.51521 40814 ft 508 kts 129°
2026-05-05 04:06 39.46037 -110.43724 40794 ft 510 kts 131°
2026-05-05 04:06 39.42290 -110.35919 40778 ft 512 kts 131°
2026-05-05 04:07 39.38511 -110.28051 40789 ft 515 kts 131°
2026-05-05 04:07 39.34710 -110.20171 40786 ft 518 kts 131°
2026-05-05 04:08 39.30891 -110.12265 40751 ft 519 kts 131°
2026-05-05 04:08 39.27057 -110.04349 40780 ft 521 kts 132°
2026-05-05 04:09 39.23328 -109.96277 40757 ft 532 kts 125°
2026-05-05 04:09 39.21908 -109.91817 40769 ft 543 kts 117°
2026-05-05 04:09 39.20745 -109.87164 40776 ft 545 kts 115°
2026-05-05 04:10 39.18400 -109.77873 40757 ft 542 kts 116°
2026-05-05 04:10 39.17253 -109.73351 40495 ft 534 kts 117°
2026-05-05 04:10 39.16090 -109.68746 39791 ft 535 kts 118°
2026-05-05 04:11 39.14928 -109.64186 39030 ft 536 kts 119°
2026-05-05 04:11 39.13783 -109.59685 38373 ft 536 kts 120°
2026-05-05 04:11 39.12629 -109.55144 37696 ft 532 kts 120°
2026-05-05 04:11 39.11466 -109.50609 36673 ft 534 kts 119°
2026-05-05 04:12 39.10289 -109.46044 35753 ft 536 kts 118°
2026-05-05 04:12 39.09123 -109.41484 34761 ft 539 kts 116°
2026-05-05 04:12 39.07948 -109.36892 33789 ft 541 kts 115°
2026-05-05 04:12 39.06763 -109.32278 32819 ft 540 kts 114°
2026-05-05 04:13 39.05591 -109.27728 32031 ft 533 kts 114°
2026-05-05 04:13 39.04429 -109.23234 31204 ft 526 kts 113°
2026-05-05 04:13 39.03280 -109.18798 30363 ft 519 kts 112°
2026-05-05 04:13 39.02148 -109.14429 29742 ft 509 kts 111°
2026-05-05 04:14 38.99885 -109.05735 29742 ft 518 kts 111°
2026-05-05 04:14 38.97572 -108.96860 29750 ft 528 kts 111°
2026-05-05 04:15 38.95218 -108.87864 29752 ft 532 kts 111°
2026-05-05 04:15 38.92869 -108.78917 29739 ft 526 kts 112°
2026-05-05 04:16 38.90524 -108.70030 29796 ft 523 kts 112°
2026-05-05 04:16 38.88343 -108.61781 29795 ft 521 kts 112°
2026-05-05 04:17 38.86013 -108.53004 29797 ft 518 kts 112°
2026-05-05 04:17 38.83687 -108.44268 29780 ft 516 kts 112°
2026-05-05 04:18 38.81742 -108.36970 29799 ft 525 kts 112°
2026-05-05 04:18 38.79326 -108.28006 29844 ft 539 kts 112°
2026-05-05 04:19 38.76866 -108.18823 29914 ft 549 kts 112°
2026-05-05 04:19 38.74338 -108.09495 29923 ft 559 kts 112°
2026-05-05 04:20 38.71774 -108.00003 29928 ft 567 kts 112°
2026-05-05 04:20 38.69206 -107.90561 29878 ft 558 kts 113°
2026-05-05 04:21 38.66659 -107.81243 29775 ft 550 kts 112°
2026-05-05 04:21 38.64147 -107.72050 29773 ft 545 kts 113°
2026-05-05 04:22 38.61631 -107.62925 29774 ft 542 kts 113°
2026-05-05 04:22 38.59130 -107.53846 29808 ft 540 kts 114°
2026-05-05 04:23 38.56622 -107.44799 29835 ft 541 kts 114°
2026-05-05 04:23 38.54102 -107.35715 29870 ft 543 kts 113°
2026-05-05 04:24 38.51582 -107.26689 29913 ft 545 kts 114°
2026-05-05 04:25 38.47693 -107.12791 29994 ft 562 kts 114°
2026-05-05 04:25 38.45384 -107.03143 30023 ft 578 kts 103°
2026-05-05 04:26 38.44658 -106.92837 30034 ft 587 kts 95°
2026-05-05 04:26 38.44134 -106.82445 29886 ft 583 kts 95°
2026-05-05 04:26 38.43867 -106.77307 29711 ft 579 kts 95°
2026-05-05 04:27 38.43603 -106.72215 29432 ft 572 kts 95°
2026-05-05 04:27 38.43343 -106.67178 29085 ft 566 kts 94°
2026-05-05 04:27 38.43081 -106.62194 28685 ft 562 kts 94°
2026-05-05 04:27 38.42816 -106.57235 28285 ft 557 kts 94°
2026-05-05 04:28 38.42553 -106.52324 27897 ft 553 kts 94°
2026-05-05 04:28 38.42291 -106.47457 27507 ft 548 kts 94°
2026-05-05 04:28 38.42030 -106.42630 27133 ft 543 kts 94°
2026-05-05 04:28 38.41768 -106.37844 26665 ft 540 kts 95°
2026-05-05 04:29 38.41505 -106.33113 26671 ft 529 kts 94°
2026-05-05 04:29 38.41249 -106.28494 26276 ft 516 kts 94°
2026-05-05 04:29 38.40998 -106.23985 25816 ft 503 kts 94°
2026-05-05 04:29 38.40753 -106.19651 25475 ft 487 kts 94°
2026-05-05 04:30 38.40509 -106.15358 24744 ft 483 kts 94°
2026-05-05 04:30 38.40266 -106.11100 24046 ft 478 kts 94°
2026-05-05 04:30 38.40026 -106.06910 23326 ft 471 kts 94°
2026-05-05 04:30 38.39787 -106.02765 22502 ft 465 kts 94°
2026-05-05 04:31 38.39549 -105.98675 21744 ft 460 kts 94°
2026-05-05 04:31 38.39314 -105.94651 21104 ft 452 kts 94°
2026-05-05 04:31 38.39080 -105.90689 20361 ft 445 kts 94°
2026-05-05 04:31 38.38849 -105.86786 19920 ft 435 kts 94°
2026-05-05 04:32 38.38623 -105.82998 19444 ft 426 kts 94°
2026-05-05 04:32 38.38399 -105.79227 18790 ft 426 kts 94°
2026-05-05 04:32 38.38174 -105.75483 18296 ft 421 kts 94°
2026-05-05 04:32 38.37950 -105.71790 17783 ft 415 kts 94°
2026-05-05 04:33 38.37727 -105.68120 17047 ft 416 kts 94°
2026-05-05 04:33 38.37504 -105.64455 16525 ft 412 kts 94°
2026-05-05 04:33 38.37282 -105.60851 16185 ft 403 kts 94°
2026-05-05 04:33 38.37062 -105.57294 15596 ft 402 kts 94°
2026-05-05 04:34 38.36845 -105.53797 15075 ft 400 kts 94°
2026-05-05 04:34 38.36626 -105.50271 14570 ft 399 kts 94°
2026-05-05 04:34 38.36406 -105.46756 14065 ft 397 kts 95°
2026-05-05 04:34 38.36185 -105.43256 13583 ft 396 kts 95°
2026-05-05 04:35 38.35967 -105.39785 13311 ft 388 kts 95°
2026-05-05 04:35 38.35750 -105.36370 12853 ft 386 kts 95°
2026-05-05 04:35 38.35531 -105.32961 12347 ft 386 kts 94°
2026-05-05 04:35 38.35311 -105.29548 11832 ft 387 kts 94°
2026-05-05 04:36 38.35094 -105.26127 11324 ft 386 kts 95°
2026-05-05 04:36 38.34874 -105.22723 10809 ft 385 kts 94°
2026-05-05 04:36 38.34652 -105.19332 10305 ft 384 kts 94°
2026-05-05 04:36 38.34430 -105.15948 9795 ft 383 kts 93°
2026-05-05 04:37 38.34209 -105.12571 9266 ft 381 kts 93°
2026-05-05 04:37 38.33989 -105.09213 8834 ft 378 kts 93°
2026-05-05 04:37 38.33772 -105.05954 8810 ft 361 kts 93°
2026-05-05 04:37 38.33561 -105.02813 8801 ft 350 kts 92°
2026-05-05 04:38 38.33361 -104.99808 8782 ft 327 kts 93°
2026-05-05 04:38 38.33173 -104.97007 8788 ft 311 kts 93°
2026-05-05 04:38 38.32996 -104.94345 8787 ft 301 kts 92°
2026-05-05 04:38 38.32821 -104.91734 8780 ft 291 kts 92°
2026-05-05 04:39 38.32650 -104.89215 8784 ft 281 kts 93°
2026-05-05 04:39 38.32485 -104.86780 8788 ft 272 kts 93°
2026-05-05 04:39 38.32323 -104.84409 8794 ft 266 kts 92°
2026-05-05 04:39 38.32165 -104.82077 8807 ft 262 kts 92°
2026-05-05 04:40 38.32007 -104.79774 8815 ft 259 kts 93°
2026-05-05 04:40 38.31851 -104.77497 8821 ft 257 kts 92°
2026-05-05 04:40 38.31696 -104.75237 8831 ft 256 kts 93°
2026-05-05 04:40 38.31600 -104.72988 8832 ft 253 kts 85°
2026-05-05 04:41 38.31934 -104.70815 8848 ft 249 kts 71°
2026-05-05 04:41 38.32656 -104.68826 8851 ft 247 kts 57°
2026-05-05 04:41 38.33722 -104.67132 8855 ft 245 kts 43°
2026-05-05 04:41 38.35073 -104.65817 8859 ft 244 kts 30°
2026-05-05 04:42 38.36624 -104.64953 8860 ft 245 kts 17°
2026-05-05 04:42 38.38303 -104.64584 8856 ft 247 kts
2026-05-05 04:42 38.40031 -104.64562 8853 ft 249 kts
2026-05-05 04:42 38.41768 -104.64521 8854 ft 250 kts
2026-05-05 04:43 38.43514 -104.64475 8848 ft 252 kts
2026-05-05 04:43 38.45265 -104.64437 8843 ft 252 kts
2026-05-05 04:43 38.47022 -104.64401 8836 ft 254 kts
2026-05-05 04:43 38.48795 -104.64362 8841 ft 256 kts
2026-05-05 04:44 38.50586 -104.64322 8833 ft 258 kts
2026-05-05 04:44 38.52389 -104.64281 8825 ft 260 kts
2026-05-05 04:44 38.54183 -104.64242 8820 ft 261 kts
2026-05-05 04:44 38.56005 -104.64202 8813 ft 263 kts
2026-05-05 04:45 38.57838 -104.64161 8802 ft 264 kts
2026-05-05 04:45 38.59675 -104.64123 8798 ft 264 kts
2026-05-05 04:45 38.61518 -104.64103 8789 ft 265 kts
2026-05-05 04:45 38.63365 -104.64093 8785 ft 266 kts
2026-05-05 04:46 38.65217 -104.64082 8783 ft 266 kts
2026-05-05 04:46 38.67079 -104.64072 8710 ft 270 kts
2026-05-05 04:46 38.68980 -104.64060 8665 ft 278 kts
2026-05-05 04:46 38.70921 -104.64060 8554 ft 273 kts 359°
2026-05-05 04:47 38.72664 -104.64164 8562 ft 229 kts 356°
2026-05-05 04:47 38.74135 -104.64312 8507 ft 199 kts 355°
2026-05-05 04:47 38.75502 -104.64513 8145 ft 196 kts 352°
2026-05-05 04:47 38.76741 -104.64909 7924 ft 172 kts 334°
2026-05-05 04:48 38.77608 -104.65787 7615 ft 142 kts 315°
2026-05-05 04:48 38.78296 -104.66640 7342 ft 133 kts 321°
2026-05-05 04:48 38.78989 -104.67399 6950 ft 129 kts 323°
2026-05-05 04:48 38.79627 -104.68163 6609 ft 124 kts 315°
2026-05-05 04:49 38.80224 -104.68896 6350 ft 114 kts 315°
2026-05-05 04:49 38.80805 -104.69623 6215 ft 121 kts 315°
2026-05-05 04:49 38.81352 -104.70325 6197 ft 99 kts 315°
2026-05-05 04:49 38.81707 -104.70762 6189 ft 45 kts 317°
2026-05-05 04:50 38.81882 -104.70981 6187 ft 12 kts 319°
2026-05-05 04:50 38.81965 -104.70956 6188 ft 22 kts 46°
2026-05-05 04:50 38.82060 -104.70958 6188 ft 25 kts 317°
2026-05-05 04:50 38.82169 -104.71031 6188 ft 15 kts 32°
2026-05-05 04:51 38.82200 -104.70998 6188 ft 0 kts 26°